CDT,Max TemperatureF,Mean TemperatureF,Min TemperatureF,Max Dew PointF,MeanDew PointF,Min DewpointF,Max Humidity, Mean Humidity, Min Humidity, Max Sea Level PressureIn, Mean Sea Level PressureIn, Min Sea Level PressureIn, Max VisibilityMiles, Mean VisibilityMiles, Min VisibilityMiles, Max Wind SpeedMPH, Mean Wind SpeedMPH, Max Gust SpeedMPH,PrecipitationIn, CloudCover, Events, WindDirDegrees
2013-9-1,66,57,48,59,49,41,100,75,40,30.12,30.08,29.96,10,10,4,18,12,23,0.00,3,Rain,14
2013-9-2,73,57,41,55,48,41,100,72,38,30.14,30.08,29.99,10,10,10,12,5,17,0.00,0,,197
2013-9-3,84,70,55,63,58,50,94,70,45,30.14,30.01,29.96,10,10,10,18,10,22,0.00,0,,256
2013-9-4,68,56,44,54,41,36,82,57,30,30.27,30.21,30.15,10,10,10,13,7,,0.00,1,Rain,82
2013-9-5,84,68,53,66,56,43,88,65,50,30.22,30.11,29.98,10,10,10,17,8,23,0.00,1,Thunderstorm,191
2013-9-6,89,76,64,72,66,59,100,74,45,30.03,29.95,29.91,10,10,9,15,7,18,0.00,2,Rain-Thunderstorm,265
2013-9-7,75,65,55,63,53,45,100,69,34,30.19,30.14,30.05,10,10,10,25,13,31,0.01,2,Rain-Thunderstorm,37
2013-9-8,66,60,55,64,58,50,100,90,72,30.16,30.00,29.85,10,9,0,13,7,,0.00,7,Fog-Rain,93
2013-9-9,64,62,59,64,61,59,100,100,100,29.85,29.78,29.74,10,8,0,12,6,,1.24,8,Fog-Rain-Thunderstorm,51
2013-9-10,75,62,50,64,58,50,100,87,53,29.99,29.90,29.83,10,10,10,18,10,25,0.00,2,,277
2013-9-11,71,60,50,55,47,41,100,64,33,30.25,30.11,29.99,10,10,10,26,11,34,0.00,1,,314
2013-9-12,68,57,46,54,47,45,100,78,43,30.36,30.30,30.24,10,10,10,10,7,,0.00,0,,324
2013-9-13,78,62,46,55,50,46,100,72,34,30.24,30.06,29.88,10,10,8,23,9,28,0.00,0,,208
2013-9-14,69,58,46,57,50,45,100,71,52,30.15,29.91,29.81,10,10,9,28,12,34,0.02,1,Rain,11
2013-9-15,60,50,41,45,39,32,100,71,34,30.36,30.29,30.15,10,10,10,14,9,16,0.00,3,,39
2013-9-16,68,52,37,48,44,37,100,70,43,30.31,30.16,29.97,10,10,10,25,12,33,0.00,0,,185
2013-9-17,75,62,50,59,54,48,100,81,57,29.97,29.80,29.71,10,10,10,24,16,32,0.00,1,,186
2013-9-18,68,62,55,66,60,55,100,99,88,29.74,29.66,29.61,10,5,0,15,9,21,0.00,6,Fog-Rain,174
2013-9-19,60,54,48,61,55,48,100,100,100,29.97,29.80,29.62,10,8,0,20,9,25,0.16,7,Fog-Rain,315
2013-9-20,53,44,35,48,42,36,100,85,62,30.01,29.99,29.95,10,10,10,18,12,25,0.00,6,,323
2013-9-21,59,46,32,46,40,32,100,84,51,30.00,29.93,29.82,10,10,0,16,5,23,0.00,1,Fog,156
2013-9-22,71,56,42,59,50,43,100,81,53,29.81,29.64,29.50,10,10,10,21,12,26,0.00,0,,151
2013-9-23,71,62,53,64,58,54,100,87,60,29.77,29.59,29.50,10,10,3,16,9,22,0.08,6,Rain-Thunderstorm,195
2013-9-24,68,57,46,54,46,37,100,76,33,29.91,29.86,29.78,10,10,2,18,11,24,0.00,0,,233
2013-9-25,73,60,46,55,51,41,94,72,46,29.88,29.75,29.67,10,10,10,30,10,34,0.00,1,,153
2013-9-26,60,54,48,61,53,45,100,91,72,29.83,29.67,29.58,10,10,0,20,13,25,0.07,5,Fog-Rain-Thunderstorm,188
2013-9-27,55,48,42,50,46,41,100,92,72,29.85,29.82,29.78,10,10,5,16,9,21,0.14,5,Rain,306
2013-9-28,60,52,44,50,45,39,100,87,51,29.81,29.73,29.68,10,10,5,17,6,25,0.16,3,Rain,255
2013-9-29,68,54,39,50,45,39,100,75,46,29.74,29.62,29.51,10,10,10,22,12,28,0.00,0,,210
2013-9-30,66,56,46,54,43,37,100,64,37,29.55,29.50,29.44,10,10,1,21,12,37,0.15,2,Rain,240